| time (UTC) | temp F | wind direction | speed MPH | gust MPH | rain 1hr in | rain 24hr in | rain mn in | humidity % | barometer mb |
| 20260505060017 | 55 | 5 | 5.0 | 11.0 | 0.00 | 0.28 | 0.00 | 96 | 1007.7 |
| 20260505054515 | 55 | 5 | 4.0 | 9.0 | 0.00 | 0.28 | 0.00 | 96 | 1007.8 |
| 20260505053012 | 54 | 346 | 2.0 | 9.0 | 0.00 | 0.28 | 0.00 | 96 | 1007.7 |
| 20260505051512 | 54 | 22 | 2.0 | 8.0 | 0.00 | 0.28 | 0.00 | 96 | 1007.8 |
| 20260505041514 | 54 | 344 | 4.0 | 10.0 | 0.00 | 0.28 | 0.00 | 96 | 1008.1 |
| 20260505040007 | 54 | 347 | 4.0 | 6.0 | 0.00 | 0.28 | 0.00 | 96 | 1008.1 |
| 20260505034507 | 54 | 333 | 3.0 | 8.0 | 0.00 | 0.28 | 0.00 | 96 | 1008.2 |
| 20260505033006 | 54 | 355 | 3.0 | 8.0 | 0.00 | 0.28 | 0.00 | 96 | 1008.3 |
| 20260505031502 | 54 | 336 | 4.0 | 9.0 | 0.00 | 0.28 | 0.00 | 96 | 1008.3 |
| 20260505030012 | 54 | 355 | 3.0 | 9.0 | 0.00 | 0.28 | 0.00 | 96 | 1008.4 |
| 20260505024502 | 54 | 338 | 5.0 | 9.0 | 0.00 | 0.28 | 0.00 | 96 | 1008.6 |
| 20260505023005 | 54 | 12 | 2.0 | 6.0 | 0.00 | 0.28 | 0.00 | 96 | 1008.7 |
| 20260505021603 | 54 | 343 | 2.0 | 6.0 | 0.00 | 0.28 | 0.00 | 96 | 1009.0 |
| 20260505014601 | 54 | 350 | 3.0 | 6.0 | 0.00 | 0.28 | 0.00 | 96 | 1009.4 |
| 20260505013012 | 54 | 355 | 2.0 | 6.0 | 0.00 | 0.28 | 0.00 | 96 | 1009.4 |
| 20260505011512 | 54 | 350 | 4.0 | 8.0 | 0.00 | 0.28 | 0.00 | 95 | 1009.5 |
| 20260505010010 | 54 | 15 | 4.0 | 6.0 | 0.00 | 0.28 | 0.00 | 95 | 1009.7 |
| 20260505004509 | 54 | 348 | 2.0 | 9.0 | 0.00 | 0.28 | 0.00 | 95 | 1009.9 |
| 20260505003007 | 54 | 346 | 4.0 | 8.0 | 0.00 | 0.28 | 0.00 | 95 | 1009.8 |
| 20260505001506 | 54 | 336 | 2.0 | 6.0 | 0.00 | 0.28 | 0.00 | 95 | 1009.9 |
| 20260505000006 | 54 | 341 | 2.0 | 6.0 | 0.00 | 0.28 | 0.00 | 95 | 1009.9 |
| 20260504234507 | 54 | 339 | 2.0 | 6.0 | 0.00 | 0.28 | 0.00 | 95 | 1010.0 |
| 20260504233007 | 54 | 347 | 3.0 | 8.0 | 0.00 | 0.28 | 0.00 | 95 | 1010.0 |
| 20260504231503 | 54 | 342 | 3.0 | 10.0 | 0.00 | 0.28 | 0.00 | 95 | 1009.9 |
| 20260504230104 | 54 | 340 | 6.0 | 10.0 | 0.00 | 0.28 | 0.00 | 95 | 1010.1 |
| 20260504224520 | 54 | 348 | 3.0 | 9.0 | 0.00 | 0.28 | 0.00 | 95 | 1010.1 |
| 20260504223017 | 55 | 355 | 3.0 | 9.0 | 0.00 | 0.28 | 0.00 | 95 | 1010.4 |
| 20260504221521 | 55 | 346 | 4.0 | 11.0 | 0.00 | 0.28 | 0.00 | 94 | 1010.4 |
| 20260504220016 | 55 | 355 | 3.0 | 6.0 | 0.00 | 0.28 | 0.00 | 94 | 1010.6 |
| 20260504214514 | 55 | 19 | 2.0 | 6.0 | 0.00 | 0.28 | 0.28 | 94 | 1010.9 |
| 20260504213011 | 55 | 355 | 3.0 | 9.0 | 0.00 | 0.28 | 0.28 | 94 | 1010.9 |
| 20260504211509 | 55 | 332 | 3.0 | 6.0 | 0.00 | 0.28 | 0.28 | 94 | 1010.9 |
| 20260504210009 | 55 | 344 | 2.0 | 5.0 | 0.01 | 0.28 | 0.28 | 94 | 1011.0 |
| 20260504204505 | 55 | 345 | 1.0 | 3.0 | 0.01 | 0.28 | 0.28 | 94 | 1010.9 |
| 20260504203010 | 55 | 344 | 2.0 | 5.0 | 0.02 | 0.28 | 0.28 | 94 | 1010.9 |
| 20260504201504 | 55 | 341 | 1.0 | 3.0 | 0.04 | 0.28 | 0.28 | 94 | 1010.9 |
| 20260504200005 | 55 | 341 | 1.0 | 3.0 | 0.03 | 0.27 | 0.27 | 93 | 1010.8 |
| 20260504194520 | 55 | 340 | 2.0 | 4.0 | 0.03 | 0.27 | 0.27 | 93 | 1010.7 |
| 20260504193019 | 55 | 333 | 1.0 | 3.0 | 0.02 | 0.26 | 0.26 | 93 | 1010.9 |
| 20260504191532 | 55 | 333 | 1.0 | 3.0 | 0.00 | 0.24 | 0.24 | 93 | 1011.1 |
| 20260504190108 | 55 | 333 | 0.0 | 3.0 | 0.00 | 0.24 | 0.24 | 93 | 1011.0 |
| 20260504184514 | 55 | 328 | 1.0 | 5.0 | 0.00 | 0.24 | 0.24 | 93 | 1010.9 |
| 20260504183027 | 56 | 323 | 3.0 | 8.0 | 0.00 | 0.24 | 0.24 | 93 | 1011.0 |
| 20260504181513 | 57 | 328 | 2.0 | 6.0 | 0.00 | 0.24 | 0.24 | 93 | 1010.9 |
| 20260504180007 | 57 | 319 | 1.0 | 5.0 | 0.00 | 0.24 | 0.24 | 93 | 1010.9 |
| 20260504174506 | 57 | 309 | 4.0 | 6.0 | 0.01 | 0.31 | 0.24 | 93 | 1010.7 |
| 20260504173005 | 57 | 302 | 4.0 | 7.0 | 0.02 | 0.31 | 0.24 | 93 | 1010.7 |
| 20260504171506 | 57 | 317 | 3.0 | 5.0 | 0.05 | 0.31 | 0.24 | 93 | 1010.6 |
| 20260504170110 | 57 | 19 | 2.0 | 5.0 | 0.06 | 0.31 | 0.24 | 93 | 1010.7 |
| 20260504081509 | 56 | 217 | 0.0 | 0.0 | 0.00 | 0.18 | 0.00 | 93 | 1012.0 |